Location: Levane
(43.5000°N, 11.6167°E)
Time: 05:50:54
(UTC+00:00)

Daily predictions for brighter satellites

Satellite Brightness Start Highest point End
(mag) Time Altitude Azimuth Time Altitude Azimuth Time Altitude Azimuth
SJ 16-02 3.0 00:09:53 32° NNE 00:09:53 32° NNE 00:12:17 10° NNE
Cosmos 2263 Rocket 3.6 00:14:58 27° E 00:14:58 27° E 00:18:55 10° NE
SL-16 R/B 2.8 00:09:33 10° NNW 00:13:47 51° NW 00:13:47 51° NW
Cosmos 2142 Rocket 4.5 00:17:47 83° N 00:17:47 83° N 00:23:57 10° N
Cosmos 1937 Rocket 4.2 00:27:08 49° ENE 00:27:08 49° ENE 00:31:25 10° NNE
SL-19 R/B 4.4 00:21:40 10° NNE 00:26:52 70° NE 00:26:52 70° NE
Cosmos 990 Rocket 4.5 00:29:47 57° NNE 00:29:47 57° NNE 00:33:53 10° NNE
Cosmos 2297 Rocket 3.5 00:28:55 30° WNW 00:29:07 30° NW 00:34:05 10° N
ADEOS II 3.9 00:29:03 10° NE 00:32:53 20° E 00:33:36 20° ESE
Cosmos 1455 Rocket 4.4 00:35:30 38° NE 00:35:30 38° NE 00:38:35 10° NNE
ATLAS CENTAUR R/B 4.0 00:37:35 13° E 00:37:35 13° E 00:38:21 10° ENE
USA 229 DEB 3.4 00:36:45 86° S 00:36:53 88° SE 00:43:46 10° NE
USA 229 3.4 00:36:53 86° S 00:37:00 88° SE 00:43:51 10° NE
Cosmos 2266 Rocket 4.4 00:31:10 10° N 00:37:22 56° ENE 00:38:25 50° ESE
Cosmos 1898 Rocket 3.8 00:43:57 63° N 00:43:57 63° N 00:48:22 10° NNE
Cosmos 2237 Rocket 4.5 00:40:33 10° WNW 00:41:12 12° WNW 00:41:12 12° WNW
GEOS 3 Rocket 4.0 00:42:28 10° NE 00:47:19 55° E 00:47:19 55° E
NOSS 3-1 (A) 3.2 00:48:36 76° E 00:48:36 76° E 00:54:33 10° NE
IRAS Rocket 4.2 00:49:56 79° E 00:50:02 79° ENE 00:55:40 10° NNW
Meteor 1-24 Rocket 3.9 00:44:41 10° NNW 00:49:07 59° NW 00:49:07 59° NW
Cosmos 1603 4.1 00:50:10 10° NNW 00:55:53 62° ENE 00:57:17 47° ESE
Cosmos 1340 Rocket 4.0 01:07:07 39° N 01:07:07 39° N 01:09:40 10° N
Cosmos 1758 4.4 01:08:43 43° NNE 01:08:43 43° NNE 01:11:30 10° N
CZ-2D R/B 2.0 01:02:23 10° NNE 01:07:55 84° WNW 01:08:00 83° W
SL-16 R/B 2.4 01:09:25 69° SW 01:09:54 73° WSW 01:16:10 10° NNW
Timation 1 Rocket 4.3 01:10:12 65° W 01:10:38 67° WNW 01:16:35 10° NNE
SL-24 R/B 4.4 01:12:55 81° NW 01:12:55 81° NW 01:17:59 10° N
Cosmos 1943 3.3 01:08:49 10° NNW 01:14:27 72° ENE 01:16:10 45° SE
USA 215 4.3 01:09:33 10° ENE 01:15:09 30° SE 01:16:30 28° SSE
Cosmos 1655 Rocket 4.1 01:12:13 10° NNW 01:18:17 55° W 01:18:27 55° W
Cosmos 2227 Rocket 4.2 01:18:31 15° WNW 01:20:16 16° NW 01:23:48 10° N
Cosmos 1544 Rocket 3.9 01:22:37 59° NNW 01:22:37 59° NNW 01:26:23 10° N
Cosmos 2292 Rocket 4.4 01:15:20 10° NNW 01:22:02 58° W 01:22:07 58° W
Cosmos 1470 4.0 01:24:18 35° NNW 01:24:18 35° NNW 01:26:56 10° N
Cosmos 1953 2.9 01:23:54 55° ENE 01:23:54 55° ENE 01:27:25 10° NNE
IRS-1D 3.6 01:19:50 10° NNE 01:24:57 67° ESE 01:25:39 60° SSE
NPP 3.6 01:21:19 10° N 01:26:41 68° WNW 01:27:04 66° W
AQUA 3.8 01:29:41 10° N 01:34:25 67° WNW 01:34:26 67° WNW
Atlas Centaur 2 3.9 01:38:02 21° SSE 01:38:02 21° SSE 01:42:14 10° ESE
Exosat Rocket 4.5 01:36:54 43° SW 01:39:19 62° WNW 01:45:23 10° NNE
Resurs 1-4 Rocket 2.6 01:36:16 10° N 01:41:11 42° WNW 01:41:36 41° W
Cosmos 1602 Rocket 3.4 01:40:01 10° N 01:44:23 88° W 01:44:26 87° SW
Meteor 2-21 Rocket 4.4 01:38:56 10° N 01:45:02 80° E 01:48:18 29° SSE
Cosmos 2098 Rocket 4.4 01:40:22 10° NNW 01:45:50 44° W 01:46:32 42° WSW
SJ 16-02 3.8 01:46:52 11° NW 01:47:05 11° NW 01:48:26 10° NW
IDEFIX/ARIANE 42P 3.9 01:45:15 10° NNE 01:50:00 35° E 01:53:20 17° SSE
Meteor 2-14 Rocket 4.3 01:44:16 10° N 01:50:19 78° W 01:52:41 40° S
Cosmos 1908 3.3 01:56:15 62° SE 01:56:40 69° E 02:00:34 10° NNE
Cosmos 1048 Rocket 3.9 01:52:34 10° NNW 01:57:46 86° ENE 02:01:21 21° SSE
Cosmos 2263 Rocket 2.7 01:56:40 38° W 01:57:56 44° WNW 02:03:16 10° NNE
Cosmos 2298 Rocket 4.0 01:57:57 51° SW 01:59:11 68° WNW 02:04:32 10° NNE
IRS-P3 4.1 01:54:33 10° NNE 01:59:57 89° E 02:01:52 42° SSW
Cosmos 2228 3.8 01:59:31 30° SSE 02:01:19 50° E 02:05:36 10° NNE
Meteor 1-16 Rocket 4.1 02:01:58 43° SSW 02:03:50 81° W 02:09:29 10° N
Meteor 1-28 Rocket 3.2 02:06:34 51° SSE 02:07:27 83° E 02:11:17 10° N
COBE Rocket 4.4 02:08:32 35° W 02:08:32 35° W 02:12:29 10° NNW
SL-08 R/B 3.3 02:05:26 26° SSE 02:08:14 89° WSW 02:13:13 10° NNW
Cosmos 1356 Rocket 4.2 02:10:31 26° SSE 02:12:32 48° E 02:16:29 10° NNE
ADEOS II 2.3 02:07:47 10° N 02:12:54 54° WNW 02:14:31 39° WSW
Cosmos 2285 Rocket 4.0 02:11:00 36° SW 02:13:37 68° WNW 02:19:55 10° NNE
Cosmos 1726 3.5 02:14:19 25° WNW 02:14:19 25° WNW 02:16:51 10° NNW
ATLAS CENTAUR R/B 1.6 02:13:46 46° W 02:14:23 51° NW 02:18:13 10° NNE
Spot 4 Rocket 4.4 02:09:37 10° NNE 02:14:45 60° ESE 02:18:02 22° S
CZ-2C R/B 4.2 02:11:23 10° NNE 02:14:49 32° E 02:17:08 17° SSE
CZ-4B R/B 4.1 02:11:24 10° N 02:15:44 36° WNW 02:16:40 33° W
Cosmos 1300 4.1 02:14:37 17° SSE 02:17:01 36° E 02:20:32 10° NNE
Cosmos 1553 Rocket 3.9 02:15:29 26° S 02:19:03 87° W 02:25:14 10° N
NOSS 2-2 (C) 4.2 02:18:19 29° SSE 02:19:20 35° ESE 02:22:47 10° NE
Cosmos 1844 Rocket 2.9 02:17:42 26° S 02:20:49 65° ESE 02:26:21 10° NNE
ERS-2 4.3 02:18:24 10° SE 02:21:30 27° ENE 02:24:36 10° N
NOSS 8 (H) 4.0 02:24:24 74° SW 02:24:39 86° NW 02:27:40 10° NE
CZ-4C R/B 4.5 02:22:09 10° SE 02:25:12 36° ENE 02:28:21 10° N
Meteor 1-11 4.2 02:20:59 10° N 02:26:45 85° E 02:32:24 10° S
SL-08 ROCKET BODY 4.4 02:23:56 10° N 02:30:00 87° E 02:35:55 10° S
Cosmos 2084 4.4 02:28:47 28° W 02:30:20 37° NW 02:34:29 10° NNE
Cosmos 1745 Rocket 4.0 02:25:28 10° N 02:31:46 85° E 02:37:57 10° S
Lacrosse 5 rocket 4.1 02:30:07 10° SE 02:32:11 13° ESE 02:34:16 10° E
ARIANE 5 R/B 2.6 02:28:08 10° N 02:33:20 66° WNW 02:36:11 27° SSW
Cosmos 1758 Rocket 3.8 02:32:24 10° NNW 02:36:34 47° W 02:38:14 31° SSW
SeaSat 1 4.4 02:33:17 10° NE 02:37:15 24° ESE 02:41:11 10° SSE
Cosmos 2058 Rocket 3.2 02:41:30 14° S 02:45:17 74° E 02:49:43 10° NNE
Cosmos 494 Rocket 4.0 02:41:03 10° NNW 02:46:07 56° WSW 02:51:11 10° S
H-2A R/B 2.1 02:42:10 10° SSE 02:46:15 76° ENE 02:50:22 10° N
CZ-2D R/B 4.2 02:44:32 10° NNW 02:47:06 13° NW 02:49:18 11° W
S3M 4.0 02:45:35 15° SSW 02:50:54 70° W 02:57:18 10° N
Cosmos 1703 4.3 02:48:40 10° NNW 02:52:00 26° W 02:52:42 25° WSW
CZ-2C R/B 3.5 02:49:31 10° NNE 02:53:53 41° E 02:58:19 10° S
SL-16 R/B 4.4 02:54:31 11° W 02:54:31 11° W 02:55:47 10° WNW
Cosmos 1825 Rocket 4.1 02:51:05 10° NNW 02:55:05 37° W 02:57:30 20° SSW
Landsat 5 3.4 02:51:12 10° SSE 02:55:12 88° ENE 02:59:23 10° NNW
Cosmos 1125 Rocket 4.3 02:54:01 21° WSW 02:56:51 37° WNW 03:01:44 10° N
USA 215 3.3 02:52:01 10° NE 02:58:35 81° NW 03:03:50 17° WSW
SL-24 R/B 4.4 02:57:07 10° S 03:02:33 65° WSW 03:07:12 10° NNW
CZ-4B R/B 3.6 03:01:25 10° SE 03:04:11 27° ENE 03:06:54 10° N
Cosmos 1892 4.0 03:01:42 10° N 03:05:23 42° ENE 03:09:00 10° SSE
Cosmos 1953 Rocket 4.0 03:02:21 10° NNW 03:06:37 44° W 03:10:49 10° SSW
CZ-2D R/B 4.3 03:06:56 10° N 03:10:29 32° WNW 03:12:51 17° WSW
Cosmos 1709 Rocket 3.9 03:05:23 10° N 03:11:34 85° W 03:17:39 10° S
OAO 2 Rocket 4.3 03:10:54 16° SW 03:14:19 33° S 03:19:00 10° ESE
PAYLOAD A 4.1 03:11:08 10° NNE 03:16:27 82° ESE 03:21:30 10° SSW
USA 238 DEB 4.4 03:15:11 10° NNW 03:22:22 65° NE 03:29:48 10° SE
USA 238 4.4 03:15:17 10° NNW 03:22:28 64° NE 03:29:54 10° SE
Atlas Centaur 2 3.8 03:20:39 13° SW 03:25:26 27° S 03:31:46 10° SE
NOSS 2-2 (E) 4.1 03:22:45 14° WSW 03:25:29 36° NW 03:29:14 10° NNE
NOSS 2-2 (D) 3.7 03:23:29 14° WSW 03:26:18 44° NW 03:30:05 10° NNE
CENTAUR R/B 4.2 03:20:50 10° NNW 03:28:38 53° NE 03:37:10 10° ESE
IDEFIX/ARIANE 42P 3.5 03:24:56 10° N 03:29:30 31° WNW 03:34:03 10° SW
USA 267 3.5 03:23:34 10° ESE 03:30:07 78° NE 03:36:40 10° NW
ADEOS 4.1 03:26:13 10° NNE 03:31:24 62° ESE 03:36:33 10° S
Cosmos 2082 Rocket 4.5 03:29:00 10° N 03:33:53 29° NE 03:38:45 10° ESE
MSX 4.3 03:30:03 10° N 03:35:28 44° WNW 03:40:54 10° SW
PSLV R/B 3.7 03:32:02 10° N 03:36:21 61° WNW 03:40:37 10° SSW
COSMOS 2406 3.6 03:33:03 10° NNW 03:38:46 71° ENE 03:44:24 10° SSE
Cosmos 1825 3.5 03:36:23 10° N 03:40:01 44° ENE 03:43:37 10° SSE
ADEOS Rocket 3.9 03:32:47 10° SSE 03:40:29 77° ENE 03:48:13 10° N
Cosmos 2315 Rocket 4.2 03:34:23 10° SSW 03:40:36 58° WNW 03:46:55 10° N
Meteor 2-1 Rocket 4.5 03:34:45 10° S 03:40:38 86° E 03:46:36 10° N
Cosmos 1844 4.5 03:37:40 10° SW 03:43:03 38° WNW 03:48:24 10° NNE
Cosmos 1455 2.2 03:44:54 10° S 03:48:45 88° W 03:52:40 10° N
CZ-2C R/B 4.4 03:46:20 10° NNW 03:49:01 19° WNW 03:51:39 10° WSW
Cosmos 2084 Rocket 4.4 03:46:08 10° NNW 03:50:32 56° NE 03:54:59 10° SE
deb Chang Zheng 4 3.6 03:46:30 10° N 03:50:52 72° WNW 03:55:11 10° SSW
Cosmos 2151 4.3 03:47:14 10° N 03:51:22 46° ENE 03:55:28 10° SSE
